SL-3 DEB

Satellite information

Favourite Embed

Satellite Type and Status

DEBRISIN ORBIT

Key statistics

Satellite SL-3 DEB at a glance.

Uptime

18369

Days in orbit

Revolutions

≈ 14.1

Per day

Orbit

LEO

Low Earth Orbit

Inclination

81.3

Latest

Satellite identification and parameters

Extended collection of information and parameters for SL-3 DEB.

Object identification

Identified? True

Debris? True

Object name: SL-3 DEB

International designator: 1975-064C

Object number (NORAD): 8039

Object ID (CCSDS): 8039

Country: COMMONWEALTH OF INDEPENDENT STATES (CIS)

Current information (Y/N): Y

RCS size: SMALL

Orbital parameters

Period: 102.179 minutes

Inclination: 81.2952 deg

SMA: 7239.935 km

Apoapsis: 883.401 km

Periapsis: 840.199 km

RAAN: 300.8265 deg

Eccentricy: 0.0029836

Argument of periapsis: 143.3904 deg

Mean anomaly: 216.9313 deg

Mean motion: 14.09291172 rev/day

Mean motion (dot): 0.00000239 rev/day2

B* drag term: 0.00012964 1/REarth

Two-line elements (TLE)

Creation date: Oct. 23, 2025, 10:16 p.m.

Reference frame: TEME

Reference center: EARTH

Epoch: Oct. 23, 2025, 11:30 a.m. UTC

TLE line 0: 0 SL-3 DEB

TLE line 1: 1 8039U 75064C 25296.47920243 .00000239 00000-0 12964-3 0 9996

TLE line 2: 2 8039 81.2952 300.8265 0029836 143.3904 216.9313 14.09291172584340

Live tracking on map

Real-time ground track for satellite SL-3 DEB.

In-orbit conjunctions

A list of the most updated potential collisions computed for object SL-3 DEB.

Target Orbit TCA Probability of collision Miss distance Type
CZ-6A DEB LEO 2025-03-17 01:25:29 0.0002473826 133.0 (m) DEBRIS
THOR ABLESTAR DEB LEO 2024-11-13 07:46:22 0.0001125115 562.0 (m) DEBRIS

Associated space launch

Second generation soviet meteorological satellite

SL-3 DEB was lifted into orbit during the mission ‘Vostok 8A92M | Meteor-2 1’, on board a Vostok 8A92M space rocket.

The launch took place on July 11, 1975, 4:15 a.m. from 41/1.

For more information about the launch, click the button.

Launch to space Vostok 8A92M | Meteor-2 1
Vostok 8A92M | Meteor-2 1

Agency: N/A

Status: Launch Successful

Launch date: July 11, 1975, 4:15 a.m. UTC

Rocket: Vostok 8A92M

Launch pad: 41/1

Location: Plesetsk Cosmodrome, Russian Federation

...

Latest news about this satellite

There are no fresh news available about this satellite. Check back as we update our databases every day.


Newsletter sign-up

Weekly statistics, charts and insights to help you stay on top of the space industry.